TimeEDT,TemperatureF,Dew PointF,Humidity,Sea Level PressureIn,VisibilityMPH,Wind Direction,Wind SpeedMPH,Gust SpeedMPH,PrecipitationIn,Events,Conditions,WindDirDegrees,DateUTC
12:15 AM,51.8,42.8,71,30.27,10.0,NNE,5.8,-,N/A,,Mostly Cloudy,30,2013-10-12 04:15:00
12:35 AM,50.0,41.0,71,30.28,10.0,North,3.5,-,N/A,,Scattered Clouds,360,2013-10-12 04:35:00
12:55 AM,48.2,41.0,76,30.28,10.0,Calm,Calm,-,N/A,,Mostly Cloudy,0,2013-10-12 04:55:00
1:15 AM,48.2,42.8,82,30.29,10.0,North,5.8,-,N/A,,Overcast,360,2013-10-12 05:15:00
1:35 AM,50.0,42.8,76,30.29,10.0,North,5.8,-,N/A,,Overcast,10,2013-10-12 05:35:00
1:55 AM,50.0,41.0,71,30.30,10.0,NNE,5.8,-,N/A,,Overcast,20,2013-10-12 05:55:00
2:15 AM,50.0,41.0,71,30.30,10.0,NNE,3.5,-,N/A,,Overcast,30,2013-10-12 06:15:00
2:35 AM,48.2,41.0,76,30.30,10.0,NNE,4.6,-,N/A,,Overcast,20,2013-10-12 06:35:00
2:55 AM,48.2,41.0,76,30.30,10.0,Calm,Calm,-,N/A,,Overcast,0,2013-10-12 06:55:00
3:15 AM,48.2,42.8,82,30.31,10.0,NW,3.5,-,N/A,,Overcast,310,2013-10-12 07:15:00
3:35 AM,48.2,42.8,82,30.32,10.0,North,3.5,-,N/A,,Overcast,360,2013-10-12 07:35:00
3:55 AM,48.2,42.8,82,30.33,10.0,NNE,4.6,-,N/A,,Overcast,20,2013-10-12 07:55:00
4:15 AM,48.2,42.8,82,30.33,10.0,North,4.6,-,N/A,,Overcast,10,2013-10-12 08:15:00
4:35 AM,48.2,42.8,82,30.34,10.0,NNW,3.5,-,N/A,,Overcast,340,2013-10-12 08:35:00
4:55 AM,48.2,42.8,82,30.35,10.0,North,4.6,-,N/A,,Overcast,10,2013-10-12 08:55:00
5:15 AM,48.2,42.8,82,30.35,10.0,North,4.6,-,N/A,,Overcast,360,2013-10-12 09:15:00
5:35 AM,48.2,42.8,82,30.36,10.0,NNE,3.5,-,N/A,,Overcast,30,2013-10-12 09:35:00
5:55 AM,48.2,42.8,82,30.36,10.0,NE,3.5,-,N/A,,Overcast,40,2013-10-12 09:55:00
6:15 AM,48.2,42.8,82,30.37,10.0,Calm,Calm,-,N/A,,Overcast,0,2013-10-12 10:15:00
6:35 AM,48.2,42.8,82,30.37,10.0,Calm,Calm,-,N/A,,Overcast,0,2013-10-12 10:35:00
6:55 AM,48.2,41.0,76,30.38,10.0,SSE,5.8,-,N/A,,Overcast,160,2013-10-12 10:55:00
7:15 AM,48.2,41.0,76,30.38,10.0,SSE,6.9,-,N/A,,Overcast,160,2013-10-12 11:15:00
7:35 AM,48.2,41.0,76,30.39,10.0,South,8.1,-,N/A,,Overcast,170,2013-10-12 11:35:00
7:55 AM,48.2,39.2,71,30.39,10.0,SSE,8.1,-,N/A,,Overcast,160,2013-10-12 11:55:00
8:15 AM,48.2,39.2,71,30.40,10.0,SSE,6.9,-,N/A,,Overcast,160,2013-10-12 12:15:00
8:35 AM,48.2,41.0,76,30.40,10.0,SSE,8.1,-,N/A,,Overcast,150,2013-10-12 12:35:00
8:55 AM,50.0,39.2,66,30.41,10.0,SSE,6.9,-,N/A,,Overcast,160,2013-10-12 12:55:00
9:15 AM,48.2,39.2,71,30.41,10.0,SE,8.1,-,N/A,,Overcast,140,2013-10-12 13:15:00
9:35 AM,48.2,39.2,71,30.41,10.0,SE,6.9,-,N/A,,Overcast,140,2013-10-12 13:35:00
9:55 AM,48.2,39.2,71,30.42,10.0,ESE,5.8,-,N/A,,Overcast,110,2013-10-12 13:55:00
10:15 AM,50.0,39.2,66,30.42,10.0,SSE,8.1,-,N/A,,Overcast,150,2013-10-12 14:15:00
10:35 AM,50.0,39.2,66,30.43,10.0,SE,4.6,-,N/A,,Overcast,140,2013-10-12 14:35:00
10:55 AM,50.0,39.2,66,30.43,10.0,ESE,6.9,-,N/A,,Overcast,120,2013-10-12 14:55:00
11:15 AM,50.0,39.2,66,30.43,10.0,ESE,6.9,-,N/A,,Overcast,110,2013-10-12 15:15:00
11:35 AM,51.8,39.2,62,30.43,10.0,SE,4.6,-,N/A,,Overcast,140,2013-10-12 15:35:00
11:55 AM,51.8,39.2,62,30.42,10.0,SSE,6.9,-,N/A,,Overcast,160,2013-10-12 15:55:00
12:15 PM,51.8,41.0,67,30.42,10.0,SSE,5.8,-,N/A,,Overcast,160,2013-10-12 16:15:00
12:35 PM,53.6,41.0,62,30.41,10.0,SE,4.6,-,N/A,,Overcast,140,2013-10-12 16:35:00
12:55 PM,53.6,41.0,62,30.41,10.0,ESE,4.6,-,N/A,,Overcast,120,2013-10-12 16:55:00
1:15 PM,53.6,39.2,58,30.40,10.0,South,3.5,-,N/A,,Overcast,180,2013-10-12 17:15:00
1:35 PM,53.6,39.2,58,30.40,10.0,Calm,Calm,-,N/A,,Overcast,0,2013-10-12 17:35:00
1:55 PM,53.6,39.2,58,30.40,10.0,NE,3.5,-,N/A,,Overcast,50,2013-10-12 17:55:00
2:15 PM,53.6,37.4,54,30.40,10.0,Calm,Calm,-,N/A,,Mostly Cloudy,0,2013-10-12 18:15:00
2:35 PM,53.6,39.2,58,30.40,10.0,Calm,Calm,-,N/A,,Overcast,0,2013-10-12 18:35:00
2:55 PM,55.4,39.2,54,30.40,10.0,West,3.5,-,N/A,,Overcast,280,2013-10-12 18:55:00
3:15 PM,53.6,39.2,58,30.39,10.0,Calm,Calm,-,N/A,,Overcast,0,2013-10-12 19:15:00
3:35 PM,53.6,39.2,58,30.39,10.0,Calm,Calm,-,N/A,,Scattered Clouds,0,2013-10-12 19:35:00
3:55 PM,55.4,39.2,54,30.39,10.0,Calm,Calm,-,N/A,,Scattered Clouds,0,2013-10-12 19:55:00
4:15 PM,53.6,39.2,58,30.39,10.0,West,4.6,-,N/A,,Mostly Cloudy,260,2013-10-12 20:15:00
4:35 PM,53.6,39.2,58,30.38,10.0,SW,3.5,-,N/A,,Scattered Clouds,220,2013-10-12 20:35:00
4:55 PM,53.6,39.2,58,30.38,10.0,SW,3.5,-,N/A,,Scattered Clouds,220,2013-10-12 20:55:00
5:15 PM,51.8,39.2,62,30.39,10.0,Calm,Calm,-,N/A,,Clear,0,2013-10-12 21:15:00
5:35 PM,48.2,39.2,71,30.39,10.0,Calm,Calm,-,N/A,,Clear,0,2013-10-12 21:35:00
5:55 PM,48.2,41.0,76,30.39,10.0,Calm,Calm,-,N/A,,Clear,0,2013-10-12 21:55:00
6:15 PM,44.6,39.2,81,30.39,10.0,Calm,Calm,-,N/A,,Clear,0,2013-10-12 22:15:00
6:35 PM,44.6,39.2,81,30.39,10.0,Calm,Calm,-,N/A,,Clear,0,2013-10-12 22:35:00
6:55 PM,44.6,39.2,81,30.39,10.0,Calm,Calm,-,N/A,,Clear,0,2013-10-12 22:55:00
7:15 PM,42.8,37.4,81,30.40,10.0,Calm,Calm,-,N/A,,Clear,0,2013-10-12 23:15:00
7:35 PM,42.8,37.4,81,30.40,3.0,Calm,Calm,-,N/A,,Clear,0,2013-10-12 23:35:00
7:55 PM,41.0,37.4,87,30.40,10.0,Calm,Calm,-,N/A,,Clear,0,2013-10-12 23:55:00
8:15 PM,39.2,35.6,87,30.40,10.0,Calm,Calm,-,N/A,,Clear,0,2013-10-13 00:15:00
8:35 PM,39.2,35.6,87,30.40,10.0,Calm,Calm,-,N/A,,Clear,0,2013-10-13 00:35:00
8:55 PM,39.2,35.6,87,30.40,10.0,Calm,Calm,-,N/A,,Clear,0,2013-10-13 00:55:00
9:15 PM,37.4,35.6,93,30.40,9.0,Calm,Calm,-,N/A,,Clear,0,2013-10-13 01:15:00
9:35 PM,37.4,35.6,93,30.41,1.8,Calm,Calm,-,N/A,,Clear,0,2013-10-13 01:35:00
9:55 PM,37.4,33.8,87,30.41,9.0,Calm,Calm,-,N/A,,Clear,0,2013-10-13 01:55:00
10:15 PM,37.4,33.8,87,30.41,9.0,Calm,Calm,-,N/A,,Clear,0,2013-10-13 02:15:00
10:35 PM,35.6,32.0,87,30.41,10.0,Calm,Calm,-,N/A,,Partly Cloudy,0,2013-10-13 02:35:00
10:55 PM,35.6,33.8,93,30.41,9.0,Calm,Calm,-,N/A,,Mostly Cloudy,0,2013-10-13 02:55:00
11:15 PM,35.6,30.2,81,30.42,1.0,Calm,Calm,-,N/A,,Overcast,0,2013-10-13 03:15:00
11:35 PM,35.6,32.0,87,30.42,4.0,Calm,Calm,-,N/A,,Overcast,0,2013-10-13 03:35:00
11:55 PM,35.6,32.0,87,30.42,0.2,Calm,Calm,-,N/A,,Overcast,0,2013-10-13 03:55:00